This demonstration page uses our WeatherBlox Daily Observations layout. Learn more.

38.89511, -77.03637

Hourly Observations for February 22, 2020

Temp ( °F °C ) Dew Point ( °F °C ) Humidity (%) Winds ( mph kmh ) Pressure ( in mb ) Visibility ( mi km ) Precip ( " mm )
12:52 am 00:52 Clear 30 -1.1 10 -12.2 43 43 SW 6 9 30.43 1030 10 16.0934 0 0
1:52 am 01:52 Clear 30 -1.1 9 -12.8 41 41 WSW 8 13 30.41 1030 10 16.0934 0 0
2:52 am 02:52 Clear 29 -1.7 10 -12.2 45 45 SW 7 11 30.4 1029 10 16.0934 0 0
3:52 am 03:52 Mostly Clear 28 -2.2 10 -12.2 47 47 SW 8 13 30.39 1029 10 16.0934 0 0
4:52 am 04:52 Mostly Clear 28 -2.2 11 -11.7 49 49 SSW 7 11 30.38 1029 10 16.0934 0 0
5:52 am 05:52 Mostly Clear 28 -2.2 10 -12.2 47 47 S 5 7 30.39 1029 10 16.0934 0 0
6:52 am 06:52 Sunny 27 -2.8 10 -12.2 49 49 S 7 11 30.4 1029 10 16.0934 0 0
7:52 am 07:52 Mostly Sunny 30 -1.1 11 -11.7 45 45 SSW 6 9 30.42 1030 10 16.0934 0 0
8:52 am 08:52 Mostly Sunny 34 1.1 12 -11.1 40 40 S 5 7 30.44 1031 10 16.0934 0 0
9:52 am 09:52 Mostly Sunny 37 2.8 13 -10.6 37 37 SSE 6 9 30.42 1030 10 16.0934 0 0
10:52 am 10:52 Mostly Sunny 42 5.6 18 -7.8 38 38 S 10 17 30.41 1030 10 16.0934 0 0
11:52 am 11:52 Mostly Sunny 46 7.8 20 -6.7 35 35 S 10 17 30.38 1029 10 16.0934 0 0
12:52 pm 12:52 Mostly Sunny 49 9.4 15 -9.4 26 26 SSE 12 19 30.34 1027 10 16.0934 0 0
1:52 pm 13:52 Mostly Sunny 52 11.1 14 -10 22 22 SSW 12 19 30.3 1026 10 16.0934 0 0
2:52 pm 14:52 Mostly Sunny 53 11.7 15 -9.4 22 22 SSE 10 17 30.29 1026 10 16.0934 0 0
3:52 pm 15:52 Sunny 52 11.1 18 -7.8 26 26 S 13 20 30.27 1025 10 16.0934 0 0
4:52 pm 16:52 Sunny 52 11.1 19 -7.2 27 27 S 8 13 30.25 1025 10 16.0934 0 0
5:52 pm 17:52 Sunny 49 9.4 15 -9.4 26 26 SSW 7 11 30.26 1025 10 16.0934 0 0
6:52 pm 18:52 Clear 48 8.9 15 -9.4 27 27 S 6 9 30.27 1025 10 16.0934 0 0
7:52 pm 19:52 Clear 44 6.7 27 -2.8 51 51 S 7 11 30.27 1025 10 16.0934 0 0
8:52 pm 20:52 Clear 44 6.7 20 -6.7 38 38 SSE 3 6 30.27 1025 10 16.0934 0 0
9:52 pm 21:52 Clear 42 5.6 18 -7.8 38 38 SW 7 11 30.26 1025 10 16.0934 0 0
10:52 pm 22:52 Clear 41 5 20 -6.7 43 43 SSW 3 6 30.26 1025 10 16.0934 0 0
11:52 pm 23:52 Clear 37 2.8 23 -5 57 57 NNW 6 9 30.26 1025 10 16.0934 0 0

Powered by AerisWeather